Вернуться в каталог

COSMOS 397 DEB

АктивенLEO
NORAD 5222·DEBRIS·🇷🇺 Russia

Запущен Feb 25, 1971 с Baikonur Cosmodrome

Loading…

Ближайшие Пролёты (ближайшие 24 часа)

TLE

СвежийSource: Space-Track

Эпоха: Sep 14, 2026, 04:11 UTC

1 05222U 71015AW  26257.17443085  .00000994  00000-0  31915-3 0  9993
2 05222  65.7203 176.9183 0657696 256.8896  95.8007 13.62180205673355

Отслеживайте COSMOS 397 DEB в реальном времени с AllMySat

Download on the App Store